www.pogodaiklimat.ru

Погода и климат >> Архив погоды >> Россия >> Магаданская область >> Мадаун


ПОГОДА в Мадауне

  • Прогноз погоды в Мадауне
  • Монитор погоды в Мадауне

АРХИВ ПОГОДЫ в Мадауне

Время (UTC), дата Ветер
(напр.,м/с)
 
Видим.   Явления Облачность Т
(С)
Тd
(С)
f
(%)
Тe
(С)
Тes
(С)
Комфортность P
(гПа)
Po
(гПа)
Тmin
(С)
Tmax
(С)
R
(мм)
R24
(мм)
S
(см)
03 12.08 СЗ 2 50 км 8/8 600 м
[Cu med, cong]
+21.5 +7.3 40 +22 +24 комфорт 1003.0 944.6
06 12.08 СЗ 1 н/о н/о +20.5 +5.9 39 +22 +22 комфорт 1003.2 944.6
09 12.08 ЮЗ 1 50 км 10/4 600 м
[Sc Cs]
+14.1 +10.0 76 +14 +15 1004.9 945.0 +22.9 0.2
12 12.08 штиль 0 н/о н/о +9.2 +7.9 92 +8 +8 1007.2 946.1
15 12.08 Ю 1 50 км 4/4 600 м
[Sc]
+5.7 +4.9 95 +4 +4 1008.6 946.6
18 12.08 штиль 0 н/о н/о +3.6 +2.9 95 +2 +2 1009.9 947.4
21 12.08 штиль 0 50 км 6/1 1000 м
[Sc Ci fib]
+10.5 +7.2 80 +10 +13 1008.2 947.2 +3.3
00 13.08 СВ 3 н/о н/о +17.7 +7.8 52 +18 +18 1005.8 946.5
03 13.08 С 2 50 км 10/8 600 м
[Cu med, cong Ci fib]
+20.4 +7.5 43 +22 +24 комфорт 1004.6 945.9
06 13.08 С 3 н/о н/о +20.4 +5.3 37 +21 +21 комфорт 1004.4 945.7
09 13.08 С 1 50 км 8/5 600 м
[Sc Ac trans]
+20.4 +5.3 37 +22 +22 комфорт 1004.4 946.2 +21.0
12 13.08 штиль 0 н/о н/о +12.1 +8.6 79 +12 +12 1008.3 947.8
15 13.08 штиль 0 50 км 6/6 600 м
[Sc]
+8.9 +7.5 91 +8 +8 1009.7 948.4
18 13.08 штиль 0 н/о н/о +5.6 +4.7 94 +4 +4 1011.9 949.7
21 13.08 СВ 1 50 км 6/0
[Ac trans Ci fib]
+13.2 +1.5 45 +14 +16 1011.8 951.1 +3.9
00 14.08 СВ 4 н/о н/о +15.0 +2.1 42 +14 +14 1012.0 951.7
03 14.08 СВ 3
{10}
50 км 8/0
[Ci fib]
+16.6 +1.9 37 +16 +23 1011.7 951.8
06 14.08 СВ 3 н/о н/о +17.7 +1.5 34 +18 +18 1012.1 952.3
09 14.08 СВ 1 50 км ясно +14.8 +2.7 44 +16 +16 1014.1 953.7 +18.2
12 14.08 штиль 0 н/о н/о +2.9 +1.4 90 +2 +2 1018.6 955.4
15 14.08 штиль 0 50 км ясно -1.5 -2.2 95 -3 -3 1020.9 956.5
18 14.08 штиль 0 н/о н/о -3.2 -3.8 96 -4 -4 1022.2 957.3
21 14.08 В 1 50 км ясно +3.9 +1.4 84 +3 +5 1021.0 957.9 -3.4
00 15.08 СВ 1 н/о н/о +17.5 +5.2 44 +19 +19 1016.5 956.4
03 15.08 СЗ 1 50 км 3/3 1000 м
[Cu hum]
+19.6 +2.9 33 +21 +29 комфорт 1015.5 955.9
06 15.08 штиль 0 н/о н/о +20.6 +3.5 32 +21 +21 комфорт 1014.9 955.6
09 15.08 штиль 0 50 км 3/3 1000 м
[Sc]
+14.4 +8.0 65 +14 +14 1016.8 956.2 +21.8
12 15.08 штиль 0 н/о н/о +3.6 +2.5 93 +2 +2 1021.2 958.0
15 15.08 штиль 0 50 км 1/1 1000 м
[Sc]
-0.6 -1.3 95 -2 -2 1023.7 959.3
18 15.08 штиль 0 н/о н/о -2.7 -3.2 96 -4 -4 1025.4 960.4
21 15.08 штиль 0 50 км ясно +5.9 +2.8 80 +5 +8 1024.1 961.1 -2.8
00 16.08 З 1 н/о н/о +16.8 +6.4 50 +18 +18 1020.3 960.0
03 16.08 СЗ 1 <100 м ясно +22.7 +3.3 28 +23 +23 комфорт 1017.7 958.6
06 16.08 СВ 2 н/о н/о +23.5 +3.3 27 +23 +23 комфорт 1016.1 957.2
09 16.08 штиль 0 50 км ясно +15.4 +7.7 60 +15 +15 1018.0 957.5 +23.7
12 16.08 штиль 0 н/о н/о +4.2 +2.5 89 +3 +3 1021.8 958.7
15 16.08 штиль 0 50 км ясно -0.2 +1.0 100 -2 -2 1023.7 959.4
18 16.08 штиль 0 н/о н/о -2.7 -3.3 96 -4 -4 1025.0 960.1
21 16.08 штиль 0 н/о н/о +5.4 +2.3 80 +5 +5 1022.9 959.9 -2.8
00 17.08 СВ 2 н/о н/о +19.1 +4.5 38 +20 +20 1018.5 958.7
03 17.08 СВ 2 н/о н/о +22.3 +2.5 27 +22 +22 комфорт 1016.8 957.7
06 17.08 СВ 2 н/о н/о +22.9 -2.5 18 +21 +21 комфорт 1016.3 957.2
21 17.08 штиль 0 н/о н/о +5.1 +0.8 74 +4 +4 1024.8 961.6 -3.8
00 18.08 Ю 1 н/о н/о +17.1 +4.5 43 +18 +18 1021.0 960.6
03 18.08 В 2 н/о н/о +20.7 +4.3 34 +22 +22 комфорт 1019.1 959.6
06 18.08 В 1 н/о н/о +22.4 +3.8 30 +22 +22 комфорт 1017.8 958.7
09 18.08 З 1 50 км 1/0
[Ci fib]
+16.3 +6.3 52 +17 +17 1019.6 959.2 +22.5
15 18.08 штиль 0 н/о н/о +1.1 +0.3 94 -0 -0 1026.6 962.5
18 18.08 штиль 0 н/о н/о -1.6 -2.2 96 -3 -3 1028.3 963.4
21 18.08 штиль 0 50 км 1/0
[Ci fib]
+7.6 +3.6 76 +7 +10 1026.3 963.6 -1.9
00 19.08 З 1 н/о н/о +17.9 +7.4 50 +19 +19 1022.7 962.4

 

Местоположение метеостанции Мадаун (Магаданская область, Россия): широта 60.60 долгота 150.70 высота над уровнем моря 522 м.

В архиве по умолчанию представлена погода в Мадауне за последнюю неделю. Архивные данные за месяц целиком и за предыдущие месяцы, начиная с января 2011 года, Вы можете получить, выбрав интересующий диапазон дат из раскрывающегося списка и нажав кнопку "Ввод!".


*Определитесь, кто Вы:
робот инопланетянин человек

Внимание! Время в таблицах - всемирное. Для получения местного времени необходимо прибавить поправку, которая равна 11 ч.

Смотрите также архив погоды в соседних городах и на ближайших метеорологических станциях:

Погода в Палатке (Магаданская область, Россия) (57 км)
Погода в Усть-Омчуге (Магаданская область, Россия) (83 км)
Погода в Талой (Магаданская область, Россия) (105 км)
Погода в Армани (Магаданская область, Россия) (110 км)
Погода в Магадане (Магаданская область, Россия) (117 км)
Погода в Оле (Магаданская область, Россия) (119 км)
Погода в Нагаева (Магаданская область, Россия) (120 км)
Погода в Талоне (Магаданская область, Россия) (149 км)
Погода в Усть-Бохапче (Магаданская область, Россия) (167 км)
Погода на Озере Джека Лондона (Магаданская область, Россия) (177 км)

Пояснения к столбцам:

Ветер - указаны скорость ветра в м/с - средняя за 10 мин, порывы в срок и между сроками (в фигурных скобках) и направление, откуда дует ветер: С - северный, СВ - северо-восточный, В - восточный, ЮВ - юго-восточный, Ю - южный, ЮЗ - юго-западный, З - западный, СЗ - северо-западный.
Видимость - горизонтальная дальность видимости в метрах или километрах. При видимости от 1 до 10 км при отсутствии осадков обычно наблюдается дымка, при ухудшении видимости до 1 км и менее - туман. В сухую погоду видимость может ухудшаться дымом, пылью или мглою.
Явления - указаны атмосферные явления, наблюдавшиеся в срок или в последний час перед сроком; фигурными скобками обозначены явления, наблюдавшиеся между сроками (за 1-3 часа до срока); квадратными скобками обозначены град или гололедные отложения с указанием их диаметра в мм.
Облачность - указаны через наклонную черту общая и нижняя облачность в баллах и высота нижней границы облаков в метрах; квадратными скобками обозначены формы облаков: Ci - перистые, Cs - перисто-слоистые, Cc - перисто-кучевые, Ac - высококучевые, As - высокослоистые, Sc - слоисто-кучевые, Ns - слоисто-дождевые, Cu - кучевые, Cb - кучево-дождевые. Подробнее классификацию облаков см. в Атласе облаков (PDF).
T - Температура воздуха - температура, измеренная на высоте 2 м над землей.
Td - Температура точки росы - температура, при понижении до которой содержащийся в воздухе водяной пар достигнет насыщения.
f - Относительная влажность воздуха - влажноcть воздуха, измеренная на высоте 2 м над землей.
Te - Эффективная температура - температура, которую ощущает одетый по сезону человек в тени. Характеристика душности погоды. При расчете учитывается влияние влажности воздуха и скорости ветра на теплоощущения человека.
Tes - Эффективная температура на солнце - температура, которую ощущает человек, с поправкой на солнечный нагрев. Характеристика знойности погоды. Зависит от высоты солнца над горизонтом, облачности и скорости ветра. Ночью, в пасмурную погоду, а также при ветре 12 м/с и более поправка равна нулю.
P - Атмосферное давление - приведенное к уровню моря атмосферное давление.
Po - Атмосферное давление - измеренное на уровне метеостанции атмосферное давление.
Tmin - Минимальная температура - минимум температуры воздуха на высоте 2 м над землей.
Tmax - Максимальная температура - максимум температуры воздуха на высоте 2 м над землей.
R - Количество осадков - Количество выпавших осадков за период времени, мм. При наведении курсора мыши на число - период времени, за который выпало указанное количество осадков.
R24 - Количество осадков - Количество выпавших осадков за 24 часа, мм.
S - Снежный покров - Высота снежного покрова, см. При наведении курсора мыши на число - состояние снежного покрова и степень покрытия местности в баллах.